Tracking 32936 objects as of 17-Jan-2026
HD Live streaming from Space Station
objects crossing your sky now

STARLINK-33861

Track STARLINK-33861 now!
10-day predictions
STARLINK-33861 is classified as:


NORAD ID: 63678
Int'l Code: 2025-085Q
Perigee: 489.8 km
Apogee: 490.6 km
Inclination: 43.0 °
Period: 94.3 minutes
Semi major axis: 6861 km
RCS: Unknown
Launch date: April 28, 2025
Source: United States (US)
Launch site: AIR FORCE EASTERN TEST RANGE (AFETR)
Your satellite tracking list
Your tracking list is empty




NASA's NSSDC Master Catalog

Two Line Element Set (TLE):
1 63678U 25085Q   26016.55181993  .00018274  00000-0  67177-3 0  9999
2 63678  43.0015 325.5779 0000572 327.5643  32.5173 15.27587254 40884
Source of the keplerian elements: AFSPC